Tracking 29892 objects as of 21-Nov-2024
HD Live streaming from Space Station
objects crossing your sky now

FENGYUN 1C DEB

Track FENGYUN 1C DEB now!
10-day predictions


NORAD ID: 30017
Int'l Code: 1999-025MS
Perigee: 545.2 km
Apogee: 856.8 km
Inclination: 98.8 °
Period: 98.6 minutes
Semi major axis: 7071 km
RCS: 0.0357 m2 (small)
Launch date: May 10, 1999
Source: People's Republic of China (PRC)
Launch site: Taiyaun Space Center, China (TSC)

Note: This is SATELLITE DEBRIS
Your satellite tracking list
Your tracking list is empty




NASA's NSSDC Master Catalog

Two Line Element Set (TLE):
1 30017U 99025MS  24325.89298268  .00002386  00000-0  36563-3 0  9999
2 30017  98.7957 341.1804 0220341 284.4539  73.2302 14.59791756947973
Source of the keplerian elements: AFSPC